SCP
18 18 16 14 15 15 14 13 15 17 16 14 12 12 12 11 12 12 12 11 10 8 7 6 6 6 7 7 7 5 3 2 2 1 1 1 1 0 0 0 0 0 0
18 19 19 16 15 16 15 14 15 18 18 15 13 12 11 12 12 13 13 11 10 8 7 6 6 6 6 6 5 4 3 3 2 1 1 1 1 0 0 0 0 0 0
16 17 18 17 16 17 16 15 17 20 21 18 15 12 12 12 13 13 13 12 10 8 7 6 6 5 5 4 3 4 4 3 2 1 1 1 1 1 0 0 0 0 0
15 16 18 19 19 20 18 17 18 21 21 19 16 13 13 12 12 12 12 11 9 8 7 6 5 4 3 2 2 3 3 2 2 1 1 1 1 1 0 0 0 0 0
17 19 21 22 23 23 21 19 19 20 20 19 17 15 12 11 11 11 11 9 7 6 4 4 4 3 2 1 1 1 2 1 1 1 1 0 0 0 0 0 0 0 0
17 18 19 20 21 21 20 20 19 18 20 22 21 17 12 10 9 9 8 6 5 3 2 2 2 2 1 1 1 1 1 0 0 0 0 0 0 0 0 0 0 0 0
14 14 13 13 14 14 15 17 17 18 22 25 23 17 12 10 8 7 6 5 3 2 1 1 0 0 0 0 0 0 0 0 0 0 0 0 0 0 0 0 0 0 0
12 10 8 7 7 7 8 10 12 15 20 23 20 14 10 8 6 5 4 3 2 1 0 0 0 0 0 0 0 0 0 0 0 0 0 0 0 0 0 0 0 0 0
9 7 5 4 3 3 4 5 6 8 11 15 13 10 8 6 4 3 2 1 1 0 0 0 0 0 0 0 0 0 0 0 0 0 0 0 0 0 0 0 0 0 0
5 3 2 2 1 1 2 2 2 3 4 6 6 4 3 2 1 1 0 0 0 0 0 0 0 0 0 0 0 0 0 0 0 0 0 0 0 0 0 0 0 0 0
2 1 1 1 1 1 1 1 1 2 2 2 1 1 0 0 0 0 0 0 0 0 0 0 0 0 0 0 0 0 0 0 0 0 0 0 0 0 0 0 0 0 0
1 1 0 0 0 0 0 0 1 1 1 1 0 0 0 0 0 0 0 0 0 0 0 0 0 0 0 0 0 0 0 0 0 0 0 0 0 0 0 0 0 0 0
0 0 0 0 0 0 0 0 0 0 0 0 0 0 0 0 0 0 0 0 0 0 0 0 0 0 0 0 0 0 0 0 0 0 0 0 0 0 0 0 0 0 0
0 0 0 0 0 0 0 0 0 0 0 0 0 0 0 0 0 0 0 0 0 0 0 0 0 0 0 0 0 0 0 0 0 0 0 0 0 0 0 0 0 0 0
0 0 0 0 0 0 0 0 0 0 0 0 0 0 0 0 0 0 0 0 0 0 0 0 0 0 0 0 0 0 0 0 0 0 0 0 0 0 0 0 0 0 0
0 0 0 0 0 0 0 0 0 0 0 0 0 0 0 0 0 0 0 0 0 0 0 0 0 0 0 0 0 0 0 0 0 0 0 0 0 0 0 0 0 0 0
0 0 0 0 0 0 0 0 0 0 0 0 0 0 0 0 0 0 0 0 0 0 0 0 0 0 0 0 0 0 0 0 0 0 0 0 0 0 0 0 0 0 0
0 0 0 0 0 0 0 0 0 0 0 0 0 0 0 0 0 0 0 0 0 0 0 0 0 0 0 0 0 0 0 0 0 0 0 0 0 0 0 0 0 0 0
0 0 0 0 0 0 0 0 0 0 0 0 0 0 0 0 0 0 0 0 0 0 0 0 0 0 0 0 0 0 0 0 0 0 0 0 0 0 0 0 0 0 0
0 0 0 0 0 0 0 0 0 0 0 0 0 0 0 0 0 0 0 0 0 0 0 0 0 0 0 0 0 0 0 0 0 0 0 0 0 0 0 0 0 0 0
0 0 0 0 0 0 0 0 0 0 0 0 0 0 0 0 0 0 0 0 0 0 0 0 0 0 0 0 0 0 0 0 0 0 0 0 0 0 0 0 0 0 0
0 0 0 0 0 0 0 0 0 0 0 0 0 0 0 0 0 0 0 0 0 0 0 0 0 0 0 0 0 0 0 0 0 0 0 0 0 0 0 0 0 0 0
0 0 0 0 0 0 0 0 0 0 0 0 0 0 0 0 0 0 0 0 0 0 0 0 0 0 0 0 0 0 0 0 0 0 0 0 0 0 0 0 0 0 0
0 0 0 0 0 0 0 0 0 0 0 0 0 0 0 0 0 0 0 0 0 0 0 0 0 0 0 0 0 0 0 0 0 0 0 0 0 0 0 0 0 0 0
0 0 0 0 0 0 0 0 0 0 0 0 0 0 0 0 0 0 0 0 0 0 0 0 0 0 0 0 0 0 0 0 0 0 0 0 0 0 0 0 0 0 0
0 0 0 0 0 0 0 0 0 0 0 0 0 0 0 0 0 0 0 0 0 0 0 0 0 0 0 0 0 0 0 0 0 0 0 0 0 0 0 0 0 0 0
Wind_Speed
3 6 7 8 9 10 12 11 11 11 10 8 9 7 6 5 4 4 5 5 4 4 3 3 3 3 3 3 3 2 2 1 1 1 1 2 2 2 1 0 1 1 1
8 9 8 5 5 8 10 11 11 11 10 7 6 5 6 4 4 4 5 5 5 4 3 3 2 3 3 3 3 2 1 1 1 0 1 2 1 1 2 1 2 1 0
9 9 9 7 4 4 8 9 10 10 9 9 7 6 5 5 4 4 4 5 5 5 4 3 3 3 3 3 3 2 2 2 1 1 0 1 1 2 0 1 2 1 1
12 12 12 11 9 5 2 5 9 9 9 9 8 9 7 6 5 5 6 6 6 6 6 5 5 4 3 4 3 3 2 2 1 1 1 1 1 0 2 2 2 2 3
14 14 14 13 12 10 6 5 8 8 7 7 7 7 6 6 6 7 9 8 7 7 8 7 6 6 5 6 6 5 4 3 2 1 1 1 0 1 1 3 3 2 3
14 14 14 14 13 13 10 8 10 9 8 7 7 8 9 9 10 10 8 7 6 6 8 8 7 6 6 6 5 5 6 4 4 3 2 2 1 1 1 3 4 4 3
14 14 14 14 13 14 14 12 12 12 11 11 10 10 10 10 10 9 8 7 6 6 6 7 6 6 6 6 5 5 5 4 4 3 2 2 1 2 2 3 4 5 4
14 14 13 13 12 13 13 14 15 15 13 12 11 10 9 8 7 8 7 7 7 7 7 7 7 6 5 5 5 4 4 4 3 3 2 2 2 2 2 2 4 5 5
14 13 12 12 12 13 13 13 15 15 14 14 13 12 11 10 10 9 9 8 7 7 7 7 6 6 5 5 4 4 3 2 2 1 1 2 2 2 2 2 3 4 6
13 13 11 11 11 11 12 13 14 14 13 13 12 11 11 11 10 10 10 9 9 8 7 7 6 6 5 5 4 3 3 3 2 2 2 3 3 3 3 3 4 4 5
12 11 10 10 10 11 12 12 13 13 13 13 12 12 11 11 11 10 10 9 8 7 7 6 6 5 5 5 4 4 4 4 4 4 4 4 4 3 4 4 4 4 4
11 11 10 10 11 11 12 12 12 13 13 12 12 12 11 11 11 11 10 9 8 7 7 6 6 6 6 5 5 5 5 4 4 5 5 5 5 5 4 4 5 5 5
11 11 11 11 11 12 12 12 12 12 12 12 12 12 12 11 11 10 9 8 8 7 7 6 6 6 6 6 6 5 5 5 5 5 5 5 5 5 4 5 5 5 6
11 11 11 11 11 11 11 11 12 11 12 12 12 11 11 10 9 9 8 7 7 7 6 6 5 6 7 8 9 8 7 6 6 5 5 5 4 4 4 5 5 5 6
12 11 11 10 10 10 10 10 10 10 10 10 11 10 9 8 8 7 7 6 6 6 5 4 4 4 6 8 8 8 9 8 8 6 6 6 6 6 4 5 5 6 6
11 11 11 10 10 9 9 9 9 9 9 9 9 8 7 7 6 6 6 5 5 5 4 5 5 6 6 7 9 8 8 8 8 7 6 7 6 4 5 9 10 10 9
11 10 10 9 8 8 8 8 8 8 8 8 7 6 6 6 5 5 5 4 4 3 3 3 4 5 6 5 7 10 8 9 7 7 6 7 6 5 5 7 10 11 13
10 9 8 8 7 7 7 7 7 7 7 6 5 5 5 5 4 4 4 3 2 2 2 2 3 3 4 3 6 12 9 7 6 6 6 5 4 5 6 9 9 9 8
9 8 7 7 7 6 6 6 6 5 5 5 5 5 5 4 4 4 3 2 2 2 1 2 3 3 3 1 5 9 8 6 7 7 6 5 4 5 8 9 9 10 8
8 7 7 7 6 5 5 5 5 5 5 5 5 4 4 3 3 3 2 2 2 2 2 2 2 2 2 3 3 8 7 7 8 7 5 4 5 7 9 8 9 10 9
8 7 6 6 5 5 4 4 5 5 5 5 4 4 3 2 2 2 2 2 2 2 2 2 2 2 3 3 0 5 6 7 8 8 6 4 7 10 11 9 8 9 10
7 6 5 5 4 4 4 5 5 4 4 4 3 3 2 3 3 2 2 3 3 3 2 2 2 2 2 3 2 5 7 8 8 7 6 7 11 13 14 10 10 13 11
6 5 6 6 5 4 4 4 4 3 3 2 2 1 1 2 2 3 3 3 3 3 4 4 4 4 4 3 5 7 9 10 7 6 10 13 14 13 9 9 12 10 6
6 5 6 6 6 5 4 3 3 2 2 1 1 1 0 1 1 2 3 4 5 6 6 6 5 5 4 6 7 8 8 9 8 8 10 12 11 9 8 8 6 3 4
6 6 6 6 6 5 4 4 3 2 2 1 1 1 0 0 1 4 5 5 6 5 5 6 6 6 6 6 8 6 7 7 8 9 6 5 6 6 5 5 5 4 4
6 6 6 6 5 4 4 4 3 2 2 2 2 2 2 1 1 4 5 8 6 6 5 4 4 4 5 8 9 10 11 11 11 7 5 6 6 7 7 6 6 5 4
Wind_Direction
116 85 95 134 146 162 158 160 163 159 160 166 171 171 162 150 140 130 128 123 120 120 124 128 136 141 128 131 138 132 131 126 100 37 298 268 234 225 218 273 332 317 360
62 64 82 93 149 155 162 164 164 163 168 168 162 156 148 143 130 114 100 100 108 120 140 137 148 136 133 137 136 129 132 123 102 116 285 286 265 246 222 172 223 251 318
58 55 54 60 77 135 168 175 166 163 169 159 147 144 130 127 121 116 103 92 95 94 83 98 101 106 118 127 128 135 146 141 116 94 119 270 286 344 306 250 248 216 245
52 49 46 41 35 36 99 150 151 153 162 156 158 158 156 153 137 126 107 92 84 85 81 78 79 82 80 89 100 83 81 103 110 80 48 40 61 329 318 295 275 256 247
52 50 45 38 34 36 37 83 112 122 131 138 146 144 135 122 110 104 100 89 77 71 72 72 74 74 72 71 69 70 64 66 76 76 60 32 349 235 255 297 315 293 262
59 53 47 43 37 40 44 69 89 90 94 99 101 107 108 107 108 105 104 95 85 76 75 78 77 78 79 75 73 72 72 67 69 63 52 38 10 335 292 285 299 299 295
64 56 49 45 42 43 47 57 76 79 80 83 83 88 94 99 105 110 108 106 98 89 82 83 79 78 77 77 76 74 69 63 59 51 39 25 343 320 320 308 303 302 301
68 60 54 52 50 50 53 60 66 68 70 75 78 80 85 89 91 93 97 93 91 91 88 84 81 79 78 79 74 75 70 64 49 33 25 347 320 317 312 304 306 305 302
74 67 61 59 58 58 59 64 70 71 71 73 77 77 78 82 85 86 86 88 93 97 91 88 85 81 76 74 74 75 69 64 37 2 357 336 322 320 323 306 296 300 303
80 74 68 66 66 67 67 68 71 73 73 75 78 83 81 81 83 83 83 86 86 88 90 86 84 79 71 60 50 59 54 35 16 353 356 347 338 342 322 317 313 302 295
91 86 81 75 74 72 72 73 75 76 76 76 78 80 81 81 82 83 83 84 85 87 88 88 84 79 71 58 44 33 35 21 11 354 357 352 332 325 333 324 315 314 320
98 94 90 85 80 76 74 73 75 76 76 77 78 78 79 79 79 79 80 80 79 77 78 76 73 67 64 51 38 25 20 6 358 351 343 336 334 343 327 324 321 318 313
98 91 84 80 77 75 74 73 73 75 77 78 77 74 74 74 75 75 73 74 73 71 69 67 64 58 54 49 32 16 2 353 346 341 336 330 324 319 325 323 312 309 309
96 90 83 77 73 71 71 72 71 73 76 76 75 73 72 72 72 72 70 69 70 70 64 60 57 53 47 42 25 7 349 343 335 327 318 310 313 317 329 314 309 315 318
96 91 85 80 78 75 71 71 72 73 77 80 79 78 78 78 77 75 72 68 66 70 63 58 56 58 64 42 26 358 345 338 326 319 312 309 306 295 283 293 310 311 304
99 95 91 85 81 79 79 78 77 76 79 82 82 82 82 81 81 81 75 70 63 57 50 45 45 46 61 55 30 2 338 322 314 314 316 310 300 306 278 276 280 277 281
99 92 90 86 83 80 82 82 82 82 81 81 83 85 83 78 73 74 75 69 64 59 50 41 52 78 82 51 14 352 323 306 306 310 313 318 336 359 352 326 303 286 275
105 100 96 92 89 88 87 87 88 90 91 93 91 86 83 80 78 72 64 57 52 49 43 38 47 86 94 55 2 341 320 313 318 318 317 326 345 28 356 325 313 306 305
100 100 102 104 101 99 100 102 102 106 101 90 81 73 69 68 64 63 60 51 30 23 13 38 32 67 113 92 2 347 324 327 332 327 337 345 3 19 348 325 315 314 316
104 106 108 109 110 116 122 120 115 104 95 89 81 74 65 56 48 48 34 19 351 352 358 27 18 36 90 127 10 345 335 340 335 330 343 9 359 339 332 323 314 312 318
115 118 119 121 130 141 137 119 107 96 90 86 79 69 55 56 62 37 13 348 350 3 3 0 3 43 67 134 331 339 341 341 330 328 333 337 339 328 319 311 294 297 309
125 127 127 127 127 125 118 104 97 95 95 92 85 74 35 11 45 23 18 10 2 353 359 359 8 38 66 57 14 332 327 322 320 321 329 331 326 319 312 306 297 304 307
136 143 137 126 115 105 97 97 100 101 99 97 97 87 41 35 26 11 28 29 23 7 7 11 11 12 26 32 2 341 330 328 323 327 328 323 318 316 310 308 307 306 301
149 147 131 120 113 109 104 100 96 97 93 77 100 198 120 17 68 42 34 43 29 17 8 12 7 5 16 18 1 346 339 341 341 340 326 320 314 312 306 307 310 303 304
132 128 121 118 117 117 113 105 88 70 66 22 316 308 37 37 99 86 51 54 64 50 22 13 2 5 3 2 340 330 331 331 327 324 314 324 333 339 341 337 332 333 333
123 119 118 118 118 113 101 87 75 53 26 2 354 346 360 27 78 119 108 69 97 106 78 46 7 12 14 335 334 333 328 323 323 326 332 339 341 342 341 338 337 339 342